Regional Weather Roundup
Issued by NWS

Home | Current Version | Previous Version | Text Only | Print | Product List | Glossary Off
Versions: 1 2 3 4 5 6 7 8 9 10 11 12 13 14 15 16 17 18 19 20 21 22 23 24 25 26 27 28 29 30 31 32 33 34 35 36 37 38 39 40 41 42 43 44 45 46 47 48 49 50

000
ASUS43 KBIS 220402
RWRND

NORTH DAKOTA REGIONAL WEATHER ROUNDUP
NATIONAL WEATHER SERVICE BISMARCK ND
1100 PM CDT MON AUG 21 2017

NOTE: "FAIR" INDICATES FEW OR NO CLOUDS BELOW 12,000 FEET WITH NO
SIGNIFICANT WEATHER AND/OR OBSTRUCTIONS TO VISIBILITY.


NDZ001>003-009>011-017-220500-
NORTHWEST NORTH DAKOTA

CITY           SKY/WX    TMP DP  RH WIND       PRES   REMARKS
WILLISTON      CLEAR     58  37  45 CALM      30.16R
MINOT          CLEAR     60  40  47 W8        30.10R
MINOT AFB        N/A     48  41  76 W7        30.09R
$$

NDZ018>021-031>035-040>046-220500-
SOUTHWEST NORTH DAKOTA

CITY           SKY/WX    TMP DP  RH WIND       PRES   REMARKS
BISMARCK       PTCLDY    58  47  66 W6        30.12R
DICKINSON      CLEAR     56  38  50 CALM      30.16R
GARRISON         N/A     49  42  77 NW7       30.12R
HETTINGER ARPT CLEAR     49  40  71 W3        30.19R
$$

NDZ004>008-012>016-024-026-027-054-220500-
NORTHEAST NORTH DAKOTA

CITY           SKY/WX    TMP DP  RH WIND       PRES   REMARKS
GRAND FORKS    PTCLDY    56  55  97 NW7       29.98S
GRND FRKS AFB  CLEAR     54  52  94 E9        30.00R
DEVILS LAKE    CLEAR     58  47  66 NW6       30.06R
$$

NDZ022-023-025-028>030-036>039-047>053-220500-
SOUTHEAST NORTH DAKOTA

CITY           SKY/WX    TMP DP  RH WIND       PRES   REMARKS
FARGO          CLEAR     62  54  74 N15       29.98R
JAMESTOWN      CLEAR     56  48  74 NW10      30.05R
$$




USA.gov is the U.S. government's official web portal to all federal, state and local government web resources and services.